GEFSSE_prec_meanprecacc_132.txt.gz
Total_Precipitation_Accumulation
0.03 0.03 0.07 0.05 0.05 0.07 0.08 0.10 0.10 0.07 0.06 0.06 0.06 0.06 0.06 0.04 0.04 0.05 0.07 0.08 0.09 0.10 0.12 0.13 0.14 0.17 0.17 0.18 0.18 0.15 0.13 0.14 0.16 0.22 0.24 0.24 0.28 0.47 0.71 0.80 0.92 0.64 0.56
0.02 0.02 0.06 0.06 0.06 0.07 0.10 0.12 0.12 0.10 0.07 0.06 0.06 0.06 0.06 0.05 0.05 0.05 0.06 0.07 0.08 0.08 0.08 0.10 0.12 0.12 0.12 0.12 0.12 0.09 0.10 0.14 0.21 0.28 0.28 0.22 0.30 0.46 0.64 0.67 0.89 0.57 0.46
0.02 0.02 0.05 0.06 0.07 0.08 0.10 0.11 0.13 0.13 0.08 0.07 0.06 0.08 0.10 0.06 0.04 0.05 0.05 0.05 0.06 0.06 0.06 0.08 0.09 0.08 0.07 0.06 0.07 0.07 0.09 0.15 0.28 0.38 0.59 0.37 0.23 0.46 0.62 0.65 0.60 0.40 0.36
0.02 0.02 0.03 0.05 0.07 0.07 0.08 0.10 0.13 0.14 0.10 0.09 0.10 0.11 0.11 0.08 0.05 0.04 0.05 0.05 0.05 0.06 0.05 0.06 0.06 0.06 0.04 0.04 0.04 0.07 0.10 0.19 0.35 0.54 0.80 0.46 0.22 0.32 0.46 0.45 0.37 0.29 0.29
0.04 0.02 0.04 0.06 0.06 0.07 0.08 0.08 0.13 0.17 0.14 0.12 0.15 0.14 0.12 0.11 0.08 0.07 0.06 0.08 0.07 0.06 0.05 0.05 0.05 0.04 0.04 0.04 0.05 0.06 0.09 0.18 0.36 0.56 0.58 0.47 0.46 0.33 0.34 0.38 0.40 0.35 0.31
0.07 0.04 0.05 0.08 0.09 0.09 0.09 0.08 0.12 0.17 0.17 0.15 0.15 0.17 0.15 0.16 0.17 0.12 0.08 0.09 0.10 0.07 0.05 0.05 0.04 0.03 0.03 0.04 0.05 0.07 0.12 0.22 0.33 0.36 0.31 0.32 0.46 0.43 0.37 0.51 0.57 0.53 0.42
0.13 0.07 0.07 0.09 0.10 0.10 0.10 0.11 0.11 0.13 0.13 0.12 0.11 0.10 0.10 0.13 0.20 0.16 0.12 0.11 0.10 0.08 0.06 0.05 0.04 0.04 0.04 0.05 0.06 0.09 0.16 0.28 0.32 0.29 0.26 0.32 0.37 0.32 0.41 0.64 0.79 0.76 0.62
0.28 0.19 0.15 0.15 0.14 0.12 0.12 0.13 0.14 0.13 0.11 0.10 0.08 0.06 0.07 0.08 0.10 0.13 0.14 0.13 0.11 0.08 0.06 0.06 0.06 0.05 0.05 0.06 0.07 0.10 0.16 0.25 0.27 0.30 0.25 0.27 0.27 0.30 0.49 0.72 0.85 0.90 0.82
0.43 0.33 0.25 0.19 0.17 0.17 0.18 0.18 0.16 0.14 0.13 0.12 0.11 0.10 0.10 0.10 0.11 0.14 0.15 0.15 0.15 0.14 0.11 0.08 0.07 0.08 0.08 0.07 0.07 0.10 0.15 0.26 0.35 0.41 0.32 0.35 0.44 0.49 0.70 0.85 0.85 0.90 0.91
0.55 0.44 0.35 0.32 0.32 0.27 0.23 0.23 0.23 0.21 0.20 0.17 0.16 0.16 0.15 0.15 0.17 0.21 0.21 0.20 0.22 0.23 0.19 0.17 0.13 0.11 0.11 0.09 0.08 0.11 0.15 0.20 0.29 0.37 0.36 0.34 0.49 0.65 0.83 0.90 0.92 0.94 0.94
0.88 0.57 0.49 0.47 0.45 0.42 0.36 0.34 0.36 0.36 0.33 0.29 0.30 0.30 0.29 0.31 0.39 0.49 0.41 0.44 0.42 0.44 0.42 0.38 0.34 0.30 0.25 0.18 0.18 0.24 0.21 0.23 0.45 0.54 0.44 0.48 0.60 0.81 0.99 1.00 0.98 1.02 1.03
1.07 0.66 0.51 0.51 0.47 0.46 0.53 0.70 0.65 0.60 0.60 0.56 0.64 0.66 0.69 0.76 0.75 0.65 0.69 0.83 0.93 1.06 1.00 0.91 0.88 0.69 0.56 0.48 0.82 1.01 0.39 0.31 0.40 0.55 0.56 0.56 0.75 1.08 1.27 1.14 1.03 1.00 0.96
0.94 0.76 0.62 0.69 0.69 0.63 0.65 0.73 0.80 0.81 0.88 0.82 0.85 0.97 1.04 1.00 0.94 0.89 0.96 1.14 1.24 1.39 1.36 1.56 1.59 1.27 1.21 1.20 1.33 1.26 0.69 0.66 0.61 0.58 0.72 0.83 0.93 1.22 1.51 1.33 1.13 1.03 0.92
1.25 1.13 1.03 1.05 0.98 0.92 0.88 0.89 0.89 0.90 0.95 0.96 1.08 1.11 1.30 1.36 1.29 1.26 1.33 1.38 1.48 1.62 1.92 1.85 1.96 1.84 1.69 1.59 1.50 1.34 1.10 1.09 0.99 0.99 1.26 1.12 1.01 1.28 1.61 1.49 1.27 1.17 1.07
1.82 1.70 1.51 1.33 1.25 1.21 1.23 1.19 1.14 1.15 1.14 1.27 1.42 1.43 1.52 1.70 1.65 1.66 1.59 1.63 1.57 1.79 2.08 2.14 2.05 2.22 2.23 2.03 1.75 1.57 1.49 1.38 1.25 1.29 1.42 1.35 1.22 1.28 1.53 1.62 1.48 1.38 1.28
2.10 2.09 1.87 1.70 1.63 1.64 1.72 1.76 1.63 1.55 1.65 1.72 1.71 1.65 1.74 1.91 2.07 2.10 1.96 1.90 1.80 1.85 2.04 2.17 2.20 2.61 2.47 2.33 1.90 1.70 1.63 1.59 1.49 1.45 1.49 1.60 1.34 1.20 1.29 1.53 1.67 1.63 1.56
2.37 2.24 2.18 2.13 2.06 2.14 2.11 2.10 1.96 1.92 1.91 1.90 1.91 1.97 1.97 1.97 2.17 2.24 2.23 2.09 2.06 2.06 2.17 2.18 2.37 2.60 2.31 2.19 1.90 1.80 1.70 1.57 1.43 1.47 1.60 1.72 1.55 1.34 1.18 1.27 1.51 1.64 1.71
2.56 2.56 2.53 2.41 2.42 2.48 2.48 2.39 2.27 2.13 1.98 1.85 1.88 1.99 1.99 2.04 2.21 2.29 2.10 1.99 2.26 2.35 2.38 2.46 2.53 2.56 2.41 2.33 2.12 1.80 1.68 1.61 1.29 1.29 1.34 1.33 1.40 1.24 1.32 1.43 1.52 1.57 1.71
2.98 3.09 3.08 3.01 2.81 2.66 2.65 2.66 2.65 2.53 2.27 2.03 1.99 2.01 2.03 1.96 2.04 2.18 2.02 2.08 2.33 2.41 2.38 2.21 2.52 2.50 2.44 2.35 1.99 1.70 1.46 1.29 1.16 1.03 1.00 0.94 1.05 1.08 1.15 1.28 1.41 1.41 1.63
3.16 3.39 3.31 3.21 3.21 3.22 3.12 2.90 2.85 2.61 2.36 2.23 2.19 2.21 2.12 2.01 2.04 2.19 2.08 2.16 2.31 2.37 2.31 2.33 2.46 2.49 2.32 2.27 1.82 1.50 1.29 1.04 1.03 0.97 0.81 0.84 0.86 0.83 0.86 1.04 1.30 1.13 1.44
3.40 3.56 3.59 3.85 3.82 3.64 3.34 2.94 2.75 2.61 2.53 2.37 2.19 2.01 1.98 1.99 2.07 2.26 2.15 2.30 2.31 2.15 2.14 2.31 2.45 2.31 2.09 2.25 2.01 1.42 1.04 0.84 0.86 0.81 0.81 0.87 0.83 0.82 0.92 1.13 1.24 1.19 1.14
3.22 3.52 3.44 3.20 3.16 3.13 2.99 2.85 2.80 2.83 2.55 2.29 2.14 1.94 1.81 1.85 1.93 1.94 1.99 1.98 2.03 2.08 2.10 2.16 2.32 2.12 1.80 2.01 1.98 1.69 1.13 0.88 0.76 0.67 0.79 0.81 0.81 0.91 0.96 1.10 1.35 1.48 1.36
2.36 2.50 2.52 2.50 2.34 2.23 2.24 2.32 2.39 2.44 2.21 2.00 1.90 1.82 1.69 1.64 1.60 1.61 1.63 1.76 1.99 2.09 2.05 2.09 2.10 1.98 1.67 1.68 1.84 1.90 1.39 1.02 0.80 0.56 0.61 0.73 0.88 1.04 1.04 1.22 1.35 1.46 1.54
1.98 1.97 1.89 1.85 1.86 1.81 1.84 1.93 1.90 1.86 1.76 1.71 1.69 1.60 1.54 1.48 1.44 1.40 1.42 1.48 1.55 1.64 1.68 1.61 1.73 1.84 1.79 1.60 1.71 1.76 1.61 1.43 1.24 0.81 0.64 0.68 0.86 0.97 1.07 1.10 1.12 1.20 1.48
1.37 1.48 1.49 1.52 1.54 1.54 1.53 1.54 1.55 1.51 1.50 1.48 1.40 1.34 1.27 1.23 1.29 1.28 1.23 1.22 1.19 1.25 1.38 1.41 1.51 1.56 1.60 1.58 1.62 1.69 1.66 1.62 1.58 1.37 0.99 0.93 0.92 0.83 0.91 1.00 1.03 1.08 1.36
1.12 1.25 1.30 1.34 1.35 1.33 1.32 1.32 1.31 1.30 1.28 1.24 1.19 1.19 1.15 1.10 1.04 1.03 1.06 1.09 1.07 1.12 1.22 1.30 1.37 1.33 1.42 1.48 1.51 1.59 1.65 1.63 1.66 1.67 1.34 1.19 1.08 0.92 0.94 0.91 0.91 0.98 1.19

GEFSSE_prec_meanprecacc_138.txt.gz
Total_Precipitation_Accumulation
0.04 0.04 0.09 0.07 0.06 0.08 0.09 0.10 0.11 0.08 0.06 0.06 0.06 0.07 0.07 0.05 0.05 0.06 0.07 0.09 0.10 0.12 0.14 0.15 0.16 0.19 0.20 0.20 0.21 0.19 0.17 0.17 0.21 0.27 0.30 0.30 0.35 0.56 0.80 0.87 0.94 0.66 0.63
0.02 0.03 0.07 0.07 0.06 0.08 0.10 0.12 0.12 0.10 0.07 0.07 0.07 0.07 0.07 0.05 0.05 0.05 0.06 0.08 0.09 0.09 0.10 0.12 0.14 0.14 0.13 0.13 0.14 0.12 0.13 0.18 0.26 0.34 0.35 0.28 0.37 0.53 0.72 0.74 0.92 0.60 0.51
0.02 0.02 0.05 0.07 0.07 0.08 0.10 0.11 0.13 0.13 0.09 0.07 0.07 0.08 0.10 0.07 0.05 0.05 0.05 0.06 0.07 0.07 0.08 0.09 0.11 0.09 0.07 0.06 0.08 0.10 0.14 0.21 0.33 0.45 0.64 0.39 0.28 0.53 0.68 0.70 0.63 0.43 0.41
0.03 0.02 0.03 0.06 0.08 0.08 0.08 0.10 0.13 0.14 0.10 0.09 0.10 0.11 0.11 0.08 0.05 0.05 0.05 0.05 0.06 0.07 0.06 0.07 0.07 0.06 0.05 0.04 0.06 0.10 0.15 0.25 0.40 0.59 0.82 0.47 0.25 0.38 0.51 0.48 0.40 0.33 0.35
0.06 0.05 0.05 0.07 0.07 0.08 0.08 0.09 0.13 0.17 0.15 0.13 0.15 0.14 0.12 0.11 0.09 0.07 0.07 0.08 0.08 0.06 0.05 0.05 0.05 0.05 0.04 0.05 0.06 0.09 0.13 0.22 0.39 0.58 0.58 0.48 0.49 0.39 0.37 0.40 0.43 0.39 0.35
0.09 0.06 0.07 0.09 0.11 0.10 0.09 0.08 0.12 0.17 0.17 0.15 0.16 0.17 0.15 0.16 0.18 0.13 0.08 0.09 0.11 0.08 0.06 0.05 0.04 0.04 0.04 0.05 0.07 0.11 0.17 0.28 0.35 0.37 0.32 0.32 0.48 0.47 0.40 0.54 0.61 0.56 0.46
0.17 0.10 0.10 0.12 0.12 0.11 0.10 0.11 0.12 0.13 0.14 0.12 0.11 0.11 0.10 0.13 0.20 0.16 0.12 0.11 0.11 0.09 0.06 0.05 0.05 0.04 0.05 0.06 0.08 0.13 0.21 0.32 0.32 0.30 0.26 0.33 0.39 0.35 0.43 0.67 0.83 0.79 0.65
0.37 0.25 0.20 0.20 0.17 0.14 0.13 0.14 0.15 0.14 0.11 0.10 0.08 0.07 0.07 0.08 0.10 0.13 0.14 0.13 0.11 0.09 0.06 0.06 0.06 0.06 0.06 0.08 0.10 0.14 0.21 0.29 0.29 0.30 0.25 0.27 0.28 0.34 0.53 0.75 0.88 0.92 0.85
0.57 0.42 0.33 0.26 0.21 0.20 0.20 0.19 0.17 0.16 0.14 0.12 0.11 0.10 0.11 0.11 0.12 0.14 0.16 0.16 0.15 0.14 0.11 0.08 0.08 0.08 0.08 0.09 0.09 0.13 0.19 0.30 0.37 0.42 0.32 0.35 0.46 0.52 0.72 0.88 0.87 0.91 0.92
0.68 0.56 0.47 0.42 0.39 0.32 0.25 0.24 0.25 0.23 0.22 0.19 0.17 0.16 0.15 0.16 0.17 0.21 0.21 0.21 0.22 0.23 0.19 0.17 0.14 0.11 0.12 0.11 0.11 0.15 0.19 0.23 0.30 0.37 0.36 0.35 0.51 0.67 0.85 0.91 0.93 0.94 0.95
1.03 0.68 0.62 0.58 0.54 0.49 0.41 0.37 0.38 0.38 0.36 0.31 0.31 0.31 0.30 0.32 0.39 0.49 0.42 0.44 0.43 0.44 0.42 0.38 0.35 0.31 0.26 0.19 0.21 0.28 0.24 0.24 0.45 0.54 0.44 0.49 0.62 0.83 1.00 1.01 0.99 1.02 1.03
1.25 0.76 0.63 0.61 0.56 0.56 0.65 0.77 0.68 0.62 0.62 0.57 0.65 0.68 0.70 0.77 0.76 0.65 0.70 0.85 0.95 1.08 1.01 0.92 0.89 0.71 0.57 0.49 0.84 1.04 0.41 0.32 0.41 0.56 0.56 0.57 0.78 1.11 1.30 1.17 1.05 1.01 0.97
1.16 0.88 0.71 0.77 0.77 0.72 0.79 0.86 0.84 0.83 0.89 0.83 0.86 0.99 1.06 1.02 0.97 0.91 0.98 1.17 1.28 1.42 1.38 1.57 1.60 1.28 1.22 1.21 1.34 1.27 0.70 0.67 0.62 0.58 0.73 0.85 0.96 1.26 1.55 1.36 1.16 1.05 0.94
1.45 1.27 1.11 1.12 1.05 0.99 0.97 1.02 0.95 0.93 0.97 0.97 1.09 1.14 1.32 1.37 1.31 1.29 1.36 1.41 1.51 1.65 1.94 1.86 1.97 1.85 1.70 1.60 1.51 1.35 1.10 1.10 1.01 1.00 1.27 1.15 1.05 1.32 1.67 1.54 1.31 1.21 1.11
1.98 1.88 1.65 1.42 1.33 1.30 1.32 1.29 1.21 1.19 1.17 1.29 1.44 1.46 1.55 1.72 1.68 1.70 1.63 1.65 1.59 1.81 2.11 2.16 2.06 2.24 2.26 2.05 1.76 1.58 1.50 1.39 1.26 1.30 1.43 1.37 1.25 1.33 1.59 1.68 1.55 1.44 1.34
2.26 2.26 2.03 1.83 1.74 1.76 1.83 1.84 1.69 1.59 1.68 1.74 1.73 1.68 1.76 1.93 2.11 2.15 2.00 1.94 1.83 1.88 2.06 2.19 2.22 2.63 2.49 2.35 1.92 1.71 1.65 1.60 1.50 1.47 1.50 1.62 1.38 1.24 1.34 1.60 1.76 1.72 1.65
2.56 2.44 2.35 2.28 2.22 2.31 2.24 2.20 2.03 1.97 1.96 1.94 1.93 1.98 1.99 2.00 2.21 2.29 2.26 2.13 2.09 2.08 2.19 2.21 2.39 2.63 2.33 2.20 1.91 1.81 1.72 1.58 1.44 1.48 1.61 1.73 1.58 1.38 1.23 1.33 1.60 1.74 1.82
2.75 2.76 2.74 2.61 2.59 2.64 2.62 2.52 2.38 2.23 2.05 1.90 1.92 2.03 2.03 2.09 2.25 2.33 2.13 2.01 2.28 2.36 2.40 2.48 2.56 2.59 2.43 2.34 2.13 1.81 1.69 1.62 1.30 1.30 1.35 1.34 1.42 1.27 1.36 1.50 1.62 1.68 1.84
3.28 3.34 3.29 3.23 3.02 2.86 2.84 2.82 2.81 2.67 2.38 2.12 2.06 2.08 2.09 2.01 2.07 2.21 2.04 2.10 2.35 2.43 2.41 2.24 2.55 2.52 2.46 2.37 2.01 1.72 1.48 1.32 1.19 1.05 1.01 0.95 1.06 1.10 1.18 1.34 1.50 1.50 1.74
3.47 3.73 3.58 3.46 3.47 3.48 3.38 3.14 3.08 2.80 2.50 2.38 2.32 2.31 2.19 2.07 2.09 2.23 2.10 2.19 2.34 2.41 2.34 2.35 2.48 2.51 2.35 2.30 1.86 1.53 1.31 1.06 1.05 0.98 0.83 0.86 0.88 0.84 0.89 1.07 1.34 1.19 1.52
3.67 3.83 3.89 4.10 4.05 3.85 3.53 3.13 2.95 2.79 2.65 2.48 2.31 2.11 2.05 2.04 2.13 2.30 2.18 2.33 2.34 2.18 2.16 2.33 2.47 2.32 2.11 2.28 2.04 1.44 1.05 0.85 0.87 0.82 0.82 0.89 0.84 0.84 0.95 1.18 1.29 1.23 1.18
3.43 3.74 3.73 3.49 3.38 3.32 3.16 3.00 2.96 3.01 2.69 2.41 2.24 2.01 1.87 1.90 1.97 1.97 2.01 2.00 2.04 2.10 2.11 2.17 2.34 2.13 1.81 2.02 2.00 1.71 1.13 0.88 0.76 0.67 0.79 0.81 0.81 0.92 0.99 1.13 1.38 1.50 1.38
2.53 2.69 2.76 2.76 2.59 2.47 2.44 2.49 2.54 2.59 2.33 2.10 1.98 1.89 1.74 1.67 1.63 1.63 1.65 1.78 2.00 2.11 2.06 2.09 2.11 1.98 1.67 1.69 1.84 1.90 1.40 1.02 0.80 0.56 0.61 0.73 0.89 1.05 1.05 1.23 1.36 1.48 1.56
2.11 2.14 2.10 2.06 2.10 2.04 2.05 2.08 2.00 1.94 1.82 1.76 1.74 1.65 1.58 1.51 1.46 1.42 1.44 1.49 1.56 1.65 1.68 1.62 1.74 1.85 1.80 1.62 1.72 1.76 1.61 1.43 1.24 0.81 0.64 0.68 0.86 0.97 1.08 1.10 1.13 1.21 1.49
1.44 1.58 1.63 1.66 1.72 1.71 1.68 1.65 1.62 1.57 1.56 1.53 1.44 1.37 1.30 1.26 1.31 1.29 1.25 1.23 1.20 1.26 1.38 1.41 1.52 1.57 1.62 1.60 1.63 1.70 1.66 1.62 1.58 1.37 0.99 0.93 0.93 0.83 0.91 1.00 1.04 1.09 1.37
1.17 1.30 1.38 1.44 1.46 1.45 1.43 1.41 1.37 1.34 1.32 1.28 1.21 1.21 1.17 1.12 1.06 1.04 1.07 1.10 1.09 1.13 1.22 1.30 1.37 1.33 1.43 1.48 1.52 1.59 1.66 1.63 1.66 1.67 1.34 1.19 1.08 0.92 0.94 0.91 0.91 0.98 1.20

GEFSSE_prec_meanprecacc_144.txt.gz
Total_Precipitation_Accumulation
0.05 0.05 0.10 0.07 0.07 0.10 0.12 0.13 0.12 0.08 0.06 0.07 0.07 0.08 0.07 0.06 0.06 0.07 0.08 0.10 0.11 0.14 0.16 0.18 0.19 0.21 0.22 0.23 0.25 0.23 0.19 0.21 0.25 0.33 0.37 0.36 0.39 0.62 0.89 0.98 1.00 0.69 0.67
0.02 0.03 0.08 0.08 0.07 0.10 0.12 0.14 0.14 0.11 0.08 0.07 0.07 0.07 0.08 0.06 0.05 0.06 0.07 0.09 0.10 0.11 0.11 0.14 0.16 0.17 0.16 0.17 0.17 0.15 0.16 0.21 0.32 0.42 0.42 0.35 0.43 0.60 0.81 0.82 0.97 0.63 0.56
0.02 0.03 0.06 0.09 0.08 0.09 0.11 0.13 0.14 0.14 0.09 0.07 0.07 0.09 0.11 0.07 0.05 0.06 0.06 0.07 0.08 0.08 0.09 0.11 0.12 0.11 0.09 0.08 0.10 0.13 0.18 0.27 0.41 0.52 0.71 0.45 0.34 0.59 0.76 0.78 0.67 0.47 0.46
0.03 0.03 0.04 0.07 0.09 0.09 0.09 0.11 0.14 0.15 0.11 0.10 0.11 0.11 0.12 0.09 0.06 0.05 0.06 0.06 0.07 0.07 0.07 0.07 0.08 0.07 0.06 0.05 0.07 0.12 0.19 0.31 0.45 0.65 0.86 0.51 0.29 0.44 0.60 0.55 0.46 0.38 0.40
0.06 0.05 0.06 0.08 0.08 0.09 0.09 0.10 0.14 0.17 0.15 0.13 0.15 0.15 0.13 0.11 0.09 0.08 0.08 0.09 0.09 0.08 0.06 0.06 0.06 0.05 0.05 0.06 0.08 0.12 0.17 0.26 0.42 0.61 0.61 0.53 0.54 0.44 0.44 0.46 0.48 0.46 0.42
0.10 0.07 0.08 0.11 0.12 0.11 0.10 0.10 0.13 0.18 0.17 0.15 0.16 0.18 0.16 0.17 0.19 0.14 0.09 0.11 0.12 0.09 0.07 0.06 0.05 0.05 0.05 0.07 0.10 0.14 0.19 0.29 0.36 0.38 0.35 0.36 0.52 0.51 0.44 0.57 0.65 0.62 0.52
0.17 0.12 0.12 0.14 0.14 0.13 0.12 0.13 0.14 0.15 0.15 0.13 0.12 0.12 0.12 0.15 0.22 0.18 0.13 0.12 0.13 0.10 0.07 0.06 0.06 0.06 0.06 0.08 0.11 0.17 0.24 0.33 0.34 0.32 0.31 0.39 0.44 0.39 0.47 0.71 0.86 0.84 0.70
0.38 0.26 0.22 0.22 0.19 0.17 0.15 0.17 0.17 0.16 0.12 0.11 0.09 0.08 0.09 0.10 0.12 0.15 0.16 0.15 0.13 0.10 0.08 0.08 0.08 0.07 0.08 0.10 0.13 0.18 0.24 0.31 0.30 0.32 0.28 0.31 0.32 0.37 0.56 0.78 0.91 0.98 0.89
0.58 0.44 0.36 0.29 0.23 0.22 0.22 0.21 0.19 0.17 0.16 0.13 0.12 0.12 0.12 0.12 0.13 0.15 0.17 0.17 0.17 0.15 0.12 0.09 0.09 0.10 0.11 0.11 0.13 0.17 0.22 0.32 0.38 0.43 0.34 0.37 0.48 0.55 0.75 0.91 0.89 0.94 0.95
0.74 0.60 0.50 0.47 0.44 0.36 0.29 0.27 0.27 0.24 0.23 0.20 0.19 0.18 0.17 0.17 0.18 0.22 0.22 0.22 0.23 0.24 0.20 0.18 0.15 0.13 0.15 0.14 0.15 0.18 0.22 0.24 0.30 0.38 0.38 0.36 0.54 0.69 0.87 0.93 0.96 0.96 0.97
1.12 0.75 0.66 0.64 0.60 0.56 0.47 0.42 0.42 0.40 0.37 0.32 0.34 0.34 0.33 0.35 0.41 0.51 0.43 0.46 0.44 0.45 0.43 0.39 0.36 0.32 0.28 0.22 0.25 0.33 0.28 0.27 0.47 0.56 0.46 0.51 0.65 0.85 1.04 1.04 1.03 1.05 1.06
1.33 0.84 0.71 0.68 0.64 0.64 0.75 0.87 0.75 0.67 0.65 0.59 0.68 0.72 0.74 0.81 0.80 0.68 0.72 0.87 0.97 1.10 1.03 0.94 0.90 0.72 0.57 0.51 0.87 1.07 0.43 0.33 0.42 0.57 0.58 0.59 0.81 1.15 1.33 1.20 1.08 1.04 0.99
1.22 0.95 0.78 0.85 0.87 0.81 0.92 1.08 1.06 0.95 0.95 0.86 0.88 1.01 1.08 1.04 0.99 0.94 1.01 1.20 1.31 1.44 1.41 1.59 1.61 1.28 1.23 1.23 1.36 1.29 0.71 0.67 0.63 0.59 0.74 0.87 0.99 1.29 1.58 1.41 1.20 1.09 0.99
1.54 1.37 1.20 1.21 1.15 1.08 1.08 1.20 1.23 1.19 1.08 1.01 1.11 1.16 1.34 1.40 1.34 1.33 1.41 1.45 1.54 1.68 1.97 1.89 1.99 1.87 1.72 1.61 1.53 1.37 1.11 1.10 1.01 1.01 1.29 1.17 1.08 1.35 1.70 1.59 1.36 1.25 1.16
2.07 2.01 1.78 1.54 1.45 1.38 1.41 1.42 1.42 1.38 1.28 1.34 1.46 1.48 1.57 1.76 1.73 1.76 1.69 1.70 1.62 1.84 2.13 2.19 2.09 2.26 2.28 2.06 1.77 1.60 1.52 1.40 1.27 1.31 1.46 1.39 1.28 1.36 1.63 1.74 1.60 1.49 1.39
2.35 2.39 2.17 1.95 1.84 1.84 1.90 1.93 1.83 1.71 1.75 1.78 1.76 1.72 1.81 2.00 2.18 2.22 2.06 1.99 1.86 1.91 2.09 2.21 2.24 2.67 2.52 2.37 1.93 1.73 1.66 1.62 1.52 1.48 1.53 1.67 1.41 1.27 1.38 1.66 1.83 1.79 1.71
2.67 2.55 2.48 2.42 2.31 2.38 2.32 2.29 2.13 2.09 2.03 1.99 1.97 2.03 2.05 2.08 2.29 2.36 2.32 2.18 2.11 2.10 2.23 2.25 2.43 2.66 2.36 2.23 1.94 1.83 1.73 1.60 1.46 1.49 1.64 1.80 1.64 1.42 1.27 1.38 1.66 1.81 1.87
2.87 2.86 2.86 2.81 2.72 2.73 2.72 2.61 2.48 2.33 2.14 1.97 1.97 2.09 2.12 2.16 2.32 2.39 2.19 2.06 2.31 2.40 2.44 2.53 2.59 2.62 2.46 2.38 2.17 1.84 1.72 1.65 1.32 1.33 1.38 1.40 1.51 1.34 1.42 1.55 1.68 1.75 1.92
3.36 3.45 3.43 3.42 3.19 2.99 2.96 2.95 2.93 2.79 2.49 2.22 2.17 2.18 2.18 2.09 2.15 2.29 2.11 2.15 2.38 2.47 2.45 2.27 2.57 2.54 2.49 2.40 2.04 1.76 1.51 1.35 1.23 1.09 1.07 1.00 1.13 1.17 1.24 1.38 1.53 1.55 1.82
3.55 3.85 3.72 3.63 3.65 3.62 3.51 3.28 3.21 2.92 2.60 2.48 2.44 2.43 2.30 2.18 2.19 2.31 2.17 2.24 2.38 2.44 2.38 2.38 2.51 2.54 2.37 2.33 1.87 1.55 1.33 1.08 1.07 1.02 0.87 0.90 0.92 0.89 0.93 1.12 1.41 1.24 1.56
3.74 3.93 4.01 4.22 4.18 3.97 3.64 3.25 3.05 2.88 2.74 2.58 2.42 2.23 2.17 2.17 2.23 2.38 2.25 2.39 2.39 2.22 2.21 2.36 2.49 2.36 2.14 2.30 2.06 1.47 1.07 0.87 0.88 0.83 0.84 0.91 0.87 0.87 0.99 1.23 1.35 1.28 1.24
3.51 3.84 3.85 3.60 3.54 3.49 3.30 3.12 3.06 3.13 2.81 2.52 2.35 2.12 1.98 2.02 2.09 2.06 2.09 2.06 2.09 2.14 2.15 2.21 2.37 2.17 1.83 2.04 2.02 1.74 1.16 0.91 0.78 0.68 0.81 0.84 0.84 0.94 1.02 1.16 1.41 1.54 1.42
2.61 2.80 2.89 2.93 2.79 2.66 2.59 2.60 2.64 2.73 2.47 2.20 2.09 1.99 1.83 1.76 1.72 1.71 1.72 1.84 2.05 2.15 2.11 2.13 2.15 2.02 1.70 1.71 1.86 1.93 1.42 1.05 0.83 0.58 0.62 0.75 0.91 1.08 1.08 1.25 1.38 1.51 1.58
2.20 2.24 2.25 2.23 2.26 2.18 2.16 2.16 2.08 2.04 1.92 1.84 1.81 1.72 1.66 1.58 1.52 1.48 1.50 1.54 1.62 1.70 1.74 1.66 1.77 1.89 1.84 1.65 1.74 1.78 1.63 1.44 1.26 0.83 0.65 0.69 0.87 0.99 1.09 1.11 1.14 1.23 1.51
1.53 1.68 1.76 1.79 1.81 1.80 1.79 1.76 1.73 1.67 1.66 1.63 1.53 1.44 1.37 1.33 1.37 1.33 1.28 1.26 1.23 1.29 1.42 1.45 1.55 1.60 1.64 1.61 1.64 1.71 1.67 1.63 1.58 1.38 1.00 0.95 0.93 0.84 0.92 1.01 1.05 1.10 1.38
1.23 1.38 1.48 1.55 1.55 1.53 1.53 1.52 1.48 1.43 1.41 1.37 1.30 1.27 1.23 1.18 1.11 1.08 1.09 1.12 1.12 1.16 1.25 1.33 1.40 1.36 1.44 1.49 1.52 1.60 1.66 1.64 1.67 1.67 1.35 1.20 1.09 0.93 0.95 0.92 0.93 1.00 1.22

GEFSSE_prec_meanprecacc_150.txt.gz
Total_Precipitation_Accumulation
0.05 0.05 0.10 0.08 0.08 0.11 0.13 0.14 0.13 0.09 0.07 0.08 0.08 0.09 0.09 0.07 0.07 0.10 0.12 0.13 0.16 0.19 0.22 0.24 0.23 0.26 0.27 0.28 0.29 0.26 0.22 0.23 0.28 0.36 0.42 0.41 0.44 0.68 0.98 1.10 1.14 0.76 0.70
0.02 0.03 0.08 0.08 0.08 0.10 0.13 0.15 0.15 0.12 0.09 0.08 0.08 0.09 0.09 0.06 0.06 0.08 0.11 0.13 0.14 0.15 0.16 0.19 0.21 0.21 0.20 0.19 0.19 0.17 0.19 0.24 0.35 0.46 0.46 0.39 0.47 0.66 0.93 0.98 1.12 0.68 0.60
0.02 0.03 0.06 0.09 0.09 0.10 0.13 0.14 0.15 0.15 0.10 0.08 0.08 0.10 0.11 0.08 0.06 0.07 0.08 0.10 0.11 0.11 0.11 0.14 0.15 0.15 0.12 0.10 0.12 0.16 0.22 0.31 0.47 0.61 0.82 0.50 0.37 0.66 0.90 0.91 0.75 0.51 0.49
0.03 0.03 0.04 0.07 0.10 0.10 0.10 0.13 0.16 0.16 0.12 0.10 0.12 0.13 0.13 0.10 0.07 0.07 0.08 0.08 0.08 0.09 0.09 0.09 0.10 0.09 0.08 0.07 0.09 0.14 0.21 0.35 0.55 0.85 1.02 0.57 0.31 0.49 0.71 0.64 0.53 0.43 0.45
0.07 0.06 0.06 0.08 0.09 0.11 0.10 0.11 0.16 0.19 0.16 0.14 0.16 0.16 0.14 0.13 0.11 0.10 0.10 0.11 0.10 0.09 0.07 0.08 0.07 0.07 0.07 0.08 0.09 0.13 0.19 0.32 0.56 0.82 0.73 0.64 0.59 0.48 0.51 0.52 0.53 0.51 0.48
0.12 0.08 0.09 0.12 0.13 0.12 0.11 0.11 0.15 0.20 0.18 0.16 0.17 0.20 0.17 0.19 0.21 0.16 0.11 0.12 0.13 0.10 0.08 0.07 0.07 0.06 0.07 0.09 0.11 0.15 0.22 0.37 0.52 0.49 0.44 0.46 0.56 0.57 0.50 0.63 0.72 0.69 0.58
0.19 0.13 0.13 0.15 0.16 0.16 0.14 0.15 0.15 0.16 0.16 0.14 0.13 0.13 0.13 0.16 0.24 0.20 0.15 0.14 0.14 0.12 0.09 0.08 0.07 0.07 0.08 0.10 0.13 0.18 0.26 0.39 0.44 0.38 0.42 0.49 0.48 0.42 0.51 0.76 0.94 0.90 0.75
0.39 0.27 0.23 0.23 0.20 0.19 0.16 0.18 0.18 0.16 0.13 0.12 0.11 0.09 0.10 0.11 0.13 0.16 0.17 0.16 0.14 0.11 0.09 0.09 0.10 0.09 0.10 0.11 0.14 0.18 0.25 0.35 0.35 0.37 0.34 0.36 0.34 0.40 0.59 0.81 0.95 1.01 0.93
0.59 0.46 0.38 0.30 0.24 0.24 0.23 0.22 0.20 0.18 0.17 0.14 0.14 0.13 0.14 0.14 0.14 0.16 0.18 0.18 0.18 0.16 0.13 0.11 0.11 0.12 0.12 0.13 0.14 0.17 0.23 0.35 0.41 0.47 0.36 0.39 0.49 0.57 0.77 0.93 0.92 0.97 0.98
0.78 0.65 0.53 0.49 0.46 0.37 0.30 0.28 0.28 0.25 0.24 0.21 0.20 0.19 0.18 0.19 0.20 0.24 0.23 0.23 0.24 0.25 0.22 0.19 0.16 0.14 0.15 0.15 0.16 0.19 0.23 0.26 0.33 0.41 0.40 0.38 0.55 0.71 0.88 0.95 0.99 1.00 1.01
1.23 0.85 0.73 0.68 0.64 0.60 0.50 0.43 0.44 0.41 0.38 0.33 0.35 0.35 0.36 0.40 0.45 0.54 0.46 0.48 0.45 0.47 0.44 0.41 0.37 0.33 0.28 0.23 0.26 0.33 0.30 0.32 0.52 0.59 0.48 0.52 0.66 0.86 1.04 1.04 1.04 1.07 1.08
1.45 0.95 0.80 0.75 0.69 0.70 0.80 0.91 0.80 0.70 0.67 0.63 0.71 0.76 0.83 0.90 0.88 0.74 0.75 0.89 0.99 1.11 1.04 0.95 0.92 0.73 0.59 0.52 0.87 1.08 0.44 0.36 0.46 0.62 0.60 0.60 0.82 1.16 1.34 1.21 1.09 1.05 1.01
1.32 1.06 0.89 0.94 0.93 0.87 1.00 1.14 1.12 1.03 1.02 0.93 0.95 1.08 1.18 1.11 1.04 0.98 1.04 1.23 1.34 1.47 1.44 1.61 1.63 1.32 1.26 1.26 1.38 1.30 0.72 0.70 0.66 0.65 0.77 0.88 0.99 1.30 1.59 1.42 1.21 1.10 1.00
1.65 1.48 1.30 1.31 1.21 1.14 1.16 1.27 1.29 1.26 1.17 1.10 1.19 1.22 1.40 1.47 1.41 1.39 1.47 1.51 1.60 1.73 2.04 1.93 2.03 1.92 1.76 1.66 1.57 1.41 1.13 1.12 1.05 1.06 1.34 1.19 1.09 1.36 1.71 1.59 1.36 1.26 1.17
2.21 2.14 1.91 1.62 1.51 1.45 1.53 1.53 1.48 1.46 1.41 1.45 1.56 1.56 1.63 1.81 1.80 1.83 1.76 1.76 1.67 1.87 2.17 2.24 2.13 2.29 2.31 2.10 1.85 1.65 1.55 1.42 1.30 1.35 1.49 1.41 1.28 1.36 1.64 1.75 1.61 1.50 1.40
2.48 2.52 2.31 2.05 1.92 1.92 2.03 2.06 1.93 1.79 1.86 1.90 1.86 1.78 1.86 2.05 2.25 2.28 2.12 2.05 1.92 1.95 2.13 2.25 2.28 2.69 2.55 2.40 1.96 1.74 1.67 1.65 1.56 1.51 1.59 1.70 1.43 1.28 1.39 1.67 1.84 1.80 1.72
2.84 2.72 2.63 2.54 2.42 2.48 2.46 2.42 2.27 2.21 2.08 2.04 2.05 2.11 2.10 2.13 2.37 2.42 2.39 2.23 2.16 2.15 2.27 2.28 2.47 2.69 2.39 2.26 1.97 1.85 1.74 1.64 1.53 1.53 1.72 1.89 1.70 1.45 1.29 1.40 1.68 1.83 1.88
3.05 3.05 3.03 2.92 2.85 2.83 2.84 2.74 2.61 2.49 2.23 2.04 2.04 2.17 2.18 2.22 2.37 2.45 2.25 2.12 2.36 2.44 2.49 2.58 2.64 2.66 2.50 2.40 2.20 1.87 1.74 1.67 1.35 1.36 1.44 1.48 1.60 1.42 1.49 1.59 1.72 1.78 1.94
3.51 3.64 3.61 3.58 3.34 3.11 3.06 3.05 3.06 2.95 2.62 2.31 2.24 2.26 2.26 2.14 2.18 2.33 2.16 2.21 2.42 2.50 2.49 2.30 2.63 2.59 2.53 2.43 2.05 1.78 1.53 1.38 1.26 1.12 1.14 1.07 1.18 1.24 1.31 1.43 1.57 1.57 1.85
3.68 4.03 3.89 3.78 3.81 3.75 3.63 3.40 3.35 3.06 2.72 2.59 2.54 2.52 2.37 2.24 2.24 2.36 2.22 2.30 2.43 2.50 2.44 2.44 2.57 2.59 2.42 2.36 1.89 1.58 1.35 1.10 1.09 1.05 0.92 0.93 0.98 0.93 0.98 1.19 1.47 1.27 1.58
3.85 4.10 4.17 4.35 4.31 4.10 3.76 3.36 3.16 3.00 2.86 2.70 2.52 2.30 2.23 2.23 2.29 2.45 2.32 2.46 2.46 2.30 2.27 2.41 2.54 2.39 2.18 2.33 2.10 1.51 1.11 0.89 0.90 0.86 0.87 0.94 0.90 0.90 1.04 1.29 1.39 1.33 1.28
3.59 3.96 4.00 3.73 3.64 3.59 3.40 3.24 3.18 3.26 2.91 2.61 2.43 2.19 2.03 2.07 2.15 2.11 2.18 2.12 2.16 2.23 2.22 2.27 2.43 2.22 1.87 2.07 2.05 1.78 1.23 0.98 0.83 0.72 0.84 0.86 0.86 0.98 1.05 1.19 1.44 1.58 1.46
2.67 2.89 3.00 3.05 2.89 2.77 2.72 2.72 2.78 2.88 2.58 2.29 2.17 2.07 1.90 1.81 1.77 1.77 1.80 1.92 2.13 2.22 2.18 2.21 2.22 2.09 1.76 1.75 1.89 1.97 1.48 1.12 0.89 0.64 0.66 0.77 0.93 1.11 1.11 1.27 1.40 1.53 1.61
2.26 2.33 2.36 2.35 2.37 2.30 2.30 2.30 2.21 2.12 1.99 1.90 1.87 1.79 1.74 1.65 1.58 1.53 1.56 1.62 1.69 1.75 1.79 1.70 1.81 1.94 1.89 1.70 1.78 1.80 1.65 1.47 1.30 0.89 0.70 0.72 0.89 1.01 1.11 1.13 1.16 1.26 1.53
1.59 1.76 1.85 1.90 1.92 1.92 1.92 1.90 1.86 1.77 1.76 1.72 1.62 1.55 1.47 1.41 1.43 1.38 1.33 1.33 1.29 1.34 1.46 1.48 1.58 1.63 1.67 1.65 1.68 1.73 1.69 1.64 1.59 1.40 1.05 0.98 0.96 0.85 0.93 1.02 1.07 1.12 1.40
1.27 1.44 1.56 1.67 1.66 1.64 1.64 1.63 1.60 1.55 1.55 1.49 1.40 1.36 1.31 1.26 1.18 1.13 1.14 1.18 1.16 1.20 1.28 1.35 1.42 1.38 1.46 1.52 1.55 1.62 1.67 1.65 1.68 1.69 1.38 1.23 1.13 0.96 0.96 0.93 0.94 1.01 1.23

GEFSSE_prec_meanprecacc_156.txt.gz
Total_Precipitation_Accumulation
0.06 0.05 0.11 0.08 0.08 0.11 0.13 0.15 0.13 0.09 0.07 0.08 0.09 0.10 0.10 0.08 0.10 0.15 0.15 0.16 0.19 0.23 0.26 0.27 0.28 0.30 0.31 0.32 0.33 0.30 0.26 0.29 0.35 0.41 0.46 0.44 0.48 0.73 1.02 1.13 1.16 0.79 0.74
0.02 0.03 0.08 0.09 0.08 0.10 0.13 0.16 0.15 0.12 0.09 0.08 0.09 0.10 0.10 0.09 0.11 0.14 0.15 0.17 0.19 0.20 0.19 0.22 0.24 0.23 0.22 0.21 0.21 0.20 0.22 0.29 0.41 0.51 0.49 0.41 0.52 0.71 0.98 1.02 1.15 0.72 0.63
0.02 0.03 0.06 0.09 0.09 0.10 0.13 0.14 0.16 0.15 0.11 0.09 0.08 0.11 0.13 0.11 0.09 0.11 0.13 0.14 0.15 0.15 0.15 0.16 0.17 0.17 0.13 0.11 0.13 0.18 0.26 0.36 0.53 0.66 0.84 0.50 0.39 0.70 0.94 0.95 0.79 0.55 0.52
0.03 0.03 0.04 0.07 0.10 0.10 0.10 0.13 0.16 0.16 0.13 0.11 0.12 0.14 0.14 0.12 0.09 0.09 0.11 0.11 0.11 0.11 0.11 0.11 0.12 0.11 0.09 0.08 0.11 0.18 0.26 0.41 0.62 0.90 1.04 0.58 0.33 0.53 0.75 0.66 0.55 0.47 0.48
0.07 0.06 0.06 0.08 0.09 0.11 0.11 0.11 0.16 0.19 0.17 0.15 0.17 0.17 0.15 0.15 0.12 0.11 0.12 0.13 0.12 0.10 0.08 0.09 0.09 0.08 0.08 0.09 0.12 0.18 0.26 0.40 0.65 0.88 0.77 0.66 0.60 0.51 0.54 0.55 0.55 0.54 0.51
0.12 0.08 0.09 0.12 0.13 0.13 0.11 0.11 0.15 0.20 0.18 0.17 0.18 0.21 0.18 0.20 0.22 0.17 0.12 0.13 0.14 0.11 0.09 0.08 0.08 0.07 0.09 0.11 0.14 0.20 0.29 0.46 0.59 0.54 0.47 0.47 0.56 0.59 0.52 0.66 0.75 0.72 0.60
0.19 0.13 0.13 0.15 0.16 0.16 0.14 0.15 0.15 0.16 0.16 0.14 0.14 0.14 0.14 0.17 0.25 0.20 0.15 0.14 0.14 0.12 0.09 0.08 0.08 0.09 0.10 0.12 0.15 0.21 0.32 0.49 0.53 0.42 0.45 0.51 0.49 0.44 0.54 0.79 0.96 0.93 0.77
0.39 0.27 0.23 0.23 0.21 0.19 0.17 0.18 0.18 0.16 0.14 0.12 0.11 0.10 0.11 0.12 0.14 0.16 0.17 0.16 0.15 0.12 0.09 0.10 0.10 0.09 0.11 0.13 0.16 0.22 0.32 0.46 0.45 0.43 0.38 0.37 0.35 0.41 0.60 0.82 0.96 1.03 0.94
0.61 0.46 0.38 0.30 0.24 0.24 0.24 0.22 0.20 0.18 0.17 0.14 0.14 0.14 0.15 0.14 0.14 0.17 0.19 0.19 0.19 0.17 0.14 0.11 0.12 0.12 0.14 0.14 0.16 0.21 0.29 0.45 0.51 0.55 0.41 0.40 0.50 0.57 0.77 0.94 0.93 0.98 0.99
0.83 0.66 0.53 0.49 0.46 0.37 0.30 0.29 0.28 0.25 0.24 0.22 0.20 0.20 0.19 0.20 0.21 0.25 0.24 0.24 0.25 0.26 0.22 0.19 0.17 0.15 0.17 0.16 0.18 0.22 0.29 0.32 0.40 0.48 0.45 0.39 0.56 0.71 0.88 0.95 0.99 1.01 1.01
1.29 0.91 0.75 0.68 0.65 0.60 0.50 0.44 0.44 0.43 0.39 0.34 0.35 0.35 0.37 0.40 0.45 0.55 0.47 0.49 0.46 0.48 0.45 0.41 0.38 0.34 0.29 0.24 0.29 0.38 0.36 0.43 0.65 0.67 0.54 0.56 0.67 0.87 1.05 1.05 1.05 1.07 1.08
1.51 1.07 0.91 0.77 0.70 0.71 0.80 0.92 0.81 0.71 0.67 0.63 0.72 0.76 0.84 0.91 0.89 0.74 0.76 0.91 1.00 1.13 1.05 0.96 0.93 0.74 0.60 0.54 0.90 1.13 0.54 0.48 0.62 0.76 0.68 0.64 0.83 1.16 1.35 1.22 1.09 1.05 1.01
1.45 1.16 1.02 1.00 0.97 0.89 1.01 1.15 1.13 1.04 1.03 0.94 0.96 1.08 1.18 1.12 1.04 0.98 1.04 1.24 1.34 1.48 1.45 1.62 1.64 1.33 1.29 1.30 1.44 1.39 0.82 0.79 0.75 0.71 0.80 0.91 1.01 1.31 1.60 1.42 1.21 1.10 1.00
1.85 1.55 1.37 1.37 1.26 1.19 1.18 1.28 1.30 1.28 1.19 1.12 1.20 1.23 1.41 1.48 1.41 1.39 1.48 1.51 1.60 1.74 2.05 1.94 2.05 1.95 1.81 1.72 1.67 1.50 1.24 1.21 1.11 1.09 1.36 1.22 1.11 1.38 1.72 1.60 1.37 1.27 1.17
2.34 2.23 1.96 1.66 1.55 1.51 1.60 1.58 1.51 1.49 1.46 1.49 1.59 1.59 1.65 1.82 1.81 1.84 1.78 1.79 1.68 1.88 2.18 2.25 2.15 2.33 2.36 2.17 1.95 1.77 1.68 1.53 1.39 1.43 1.51 1.43 1.31 1.39 1.65 1.76 1.61 1.51 1.41
2.58 2.62 2.41 2.11 1.98 1.98 2.11 2.15 2.00 1.84 1.91 1.96 1.92 1.83 1.87 2.06 2.26 2.30 2.15 2.08 1.94 1.97 2.14 2.26 2.30 2.72 2.59 2.45 2.02 1.83 1.77 1.74 1.60 1.55 1.60 1.71 1.45 1.30 1.41 1.68 1.85 1.82 1.73
2.96 2.85 2.79 2.67 2.51 2.56 2.54 2.52 2.34 2.27 2.13 2.09 2.11 2.16 2.14 2.15 2.38 2.43 2.41 2.26 2.18 2.17 2.28 2.29 2.49 2.71 2.43 2.30 2.02 1.92 1.82 1.69 1.56 1.56 1.73 1.90 1.71 1.47 1.32 1.42 1.70 1.85 1.90
3.22 3.20 3.19 3.07 2.98 2.94 2.92 2.83 2.70 2.58 2.30 2.09 2.07 2.20 2.22 2.24 2.38 2.45 2.26 2.14 2.37 2.46 2.51 2.60 2.67 2.70 2.53 2.43 2.24 1.93 1.79 1.70 1.37 1.38 1.46 1.50 1.61 1.43 1.51 1.62 1.75 1.80 1.96
3.66 3.80 3.78 3.73 3.47 3.22 3.15 3.15 3.17 3.07 2.73 2.41 2.30 2.29 2.28 2.16 2.20 2.34 2.17 2.22 2.43 2.52 2.52 2.32 2.66 2.62 2.57 2.46 2.08 1.83 1.58 1.42 1.29 1.16 1.17 1.10 1.20 1.25 1.33 1.46 1.60 1.60 1.88
3.82 4.19 4.07 3.95 3.95 3.88 3.75 3.51 3.47 3.20 2.90 2.76 2.64 2.58 2.40 2.26 2.25 2.37 2.23 2.31 2.45 2.52 2.46 2.46 2.60 2.61 2.44 2.39 1.93 1.64 1.41 1.14 1.14 1.10 0.95 0.97 1.01 0.96 1.01 1.21 1.48 1.29 1.61
4.00 4.28 4.36 4.52 4.46 4.22 3.86 3.45 3.26 3.11 3.02 2.87 2.64 2.37 2.27 2.25 2.32 2.47 2.34 2.48 2.47 2.31 2.28 2.43 2.56 2.41 2.19 2.35 2.14 1.56 1.17 0.97 0.98 0.93 0.93 0.98 0.94 0.94 1.07 1.31 1.40 1.33 1.30
3.66 4.08 4.17 3.93 3.80 3.69 3.47 3.32 3.26 3.35 3.04 2.75 2.55 2.28 2.09 2.11 2.18 2.14 2.21 2.15 2.18 2.24 2.23 2.28 2.44 2.24 1.89 2.08 2.07 1.81 1.27 1.04 0.89 0.77 0.90 0.92 0.91 1.02 1.08 1.21 1.45 1.58 1.47
2.73 2.97 3.12 3.23 3.06 2.89 2.80 2.80 2.87 2.97 2.69 2.41 2.28 2.15 1.96 1.86 1.82 1.82 1.83 1.94 2.15 2.23 2.18 2.21 2.22 2.09 1.77 1.76 1.90 1.98 1.49 1.13 0.91 0.67 0.69 0.82 0.99 1.16 1.14 1.29 1.42 1.55 1.61
2.31 2.42 2.47 2.48 2.53 2.43 2.39 2.37 2.26 2.17 2.03 1.94 1.92 1.85 1.81 1.73 1.65 1.59 1.60 1.65 1.72 1.78 1.81 1.70 1.81 1.94 1.89 1.71 1.79 1.81 1.66 1.48 1.30 0.90 0.72 0.74 0.92 1.03 1.13 1.14 1.16 1.26 1.54
1.69 1.84 1.96 2.04 2.06 2.04 2.02 1.98 1.94 1.84 1.83 1.78 1.70 1.63 1.56 1.50 1.51 1.45 1.38 1.36 1.31 1.35 1.47 1.49 1.58 1.63 1.67 1.65 1.68 1.74 1.70 1.66 1.60 1.41 1.05 0.99 0.97 0.87 0.94 1.03 1.07 1.13 1.41
1.39 1.52 1.65 1.76 1.76 1.76 1.75 1.74 1.69 1.64 1.64 1.58 1.48 1.45 1.39 1.35 1.27 1.21 1.20 1.22 1.18 1.21 1.29 1.37 1.43 1.39 1.46 1.53 1.56 1.62 1.68 1.66 1.69 1.69 1.38 1.23 1.14 0.97 0.97 0.93 0.94 1.01 1.24

GEFSSE_prec_meanprecacc_162.txt.gz
Total_Precipitation_Accumulation
0.08 0.07 0.13 0.09 0.08 0.11 0.14 0.16 0.14 0.11 0.09 0.10 0.11 0.12 0.12 0.11 0.12 0.17 0.17 0.18 0.22 0.27 0.31 0.32 0.31 0.34 0.35 0.37 0.38 0.34 0.31 0.33 0.38 0.44 0.49 0.50 0.55 0.81 1.11 1.20 1.20 0.81 0.79
0.02 0.04 0.10 0.10 0.09 0.11 0.14 0.16 0.16 0.13 0.10 0.10 0.10 0.11 0.12 0.11 0.13 0.16 0.17 0.19 0.22 0.24 0.24 0.27 0.27 0.27 0.26 0.24 0.24 0.22 0.25 0.34 0.48 0.58 0.54 0.45 0.57 0.76 1.03 1.04 1.17 0.74 0.67
0.02 0.03 0.07 0.10 0.09 0.10 0.13 0.14 0.16 0.16 0.11 0.10 0.10 0.13 0.15 0.14 0.12 0.13 0.16 0.17 0.19 0.18 0.19 0.20 0.21 0.19 0.15 0.13 0.15 0.20 0.28 0.40 0.61 0.73 0.88 0.53 0.43 0.75 1.00 0.99 0.81 0.58 0.56
0.03 0.03 0.04 0.07 0.10 0.10 0.11 0.13 0.16 0.16 0.13 0.12 0.13 0.15 0.16 0.15 0.12 0.13 0.14 0.14 0.14 0.14 0.14 0.14 0.15 0.12 0.10 0.10 0.14 0.20 0.28 0.44 0.67 0.93 1.05 0.59 0.35 0.56 0.80 0.70 0.58 0.49 0.51
0.07 0.06 0.07 0.08 0.09 0.11 0.11 0.12 0.17 0.19 0.17 0.15 0.18 0.19 0.17 0.17 0.15 0.15 0.15 0.15 0.14 0.12 0.10 0.11 0.11 0.09 0.09 0.12 0.16 0.22 0.30 0.44 0.68 0.89 0.77 0.67 0.63 0.56 0.58 0.58 0.58 0.58 0.55
0.12 0.08 0.09 0.12 0.14 0.13 0.12 0.11 0.15 0.20 0.19 0.17 0.19 0.22 0.20 0.22 0.24 0.21 0.15 0.15 0.15 0.12 0.10 0.10 0.10 0.10 0.11 0.13 0.18 0.24 0.34 0.49 0.60 0.55 0.48 0.49 0.59 0.64 0.55 0.70 0.78 0.76 0.63
0.19 0.14 0.13 0.16 0.16 0.16 0.15 0.15 0.15 0.16 0.16 0.14 0.14 0.14 0.15 0.19 0.27 0.24 0.17 0.16 0.15 0.13 0.10 0.11 0.11 0.11 0.13 0.15 0.19 0.27 0.37 0.52 0.54 0.43 0.45 0.51 0.50 0.47 0.56 0.82 1.00 0.96 0.79
0.39 0.27 0.23 0.23 0.21 0.19 0.17 0.19 0.19 0.17 0.14 0.13 0.12 0.10 0.12 0.14 0.17 0.19 0.19 0.18 0.16 0.13 0.11 0.11 0.12 0.12 0.15 0.17 0.20 0.27 0.36 0.47 0.45 0.44 0.39 0.38 0.37 0.44 0.62 0.85 1.00 1.07 0.97
0.61 0.46 0.38 0.31 0.25 0.24 0.24 0.23 0.20 0.19 0.17 0.15 0.15 0.14 0.15 0.15 0.16 0.19 0.20 0.20 0.19 0.18 0.15 0.12 0.13 0.14 0.17 0.18 0.20 0.26 0.33 0.46 0.52 0.56 0.42 0.41 0.53 0.60 0.79 0.96 0.96 1.01 1.00
0.85 0.67 0.53 0.50 0.46 0.38 0.31 0.29 0.29 0.26 0.25 0.22 0.21 0.21 0.20 0.21 0.22 0.25 0.24 0.24 0.25 0.26 0.23 0.20 0.18 0.17 0.20 0.20 0.22 0.27 0.34 0.35 0.41 0.48 0.45 0.41 0.59 0.72 0.90 0.97 1.01 1.02 1.03
1.34 0.94 0.75 0.68 0.65 0.60 0.50 0.44 0.45 0.43 0.39 0.34 0.36 0.36 0.38 0.40 0.45 0.55 0.47 0.50 0.47 0.49 0.46 0.43 0.40 0.37 0.32 0.28 0.34 0.44 0.41 0.45 0.66 0.67 0.54 0.57 0.69 0.88 1.06 1.06 1.07 1.09 1.10
1.53 1.09 0.93 0.78 0.70 0.71 0.80 0.92 0.81 0.71 0.68 0.64 0.72 0.76 0.84 0.91 0.89 0.74 0.77 0.92 1.02 1.15 1.07 0.99 0.95 0.76 0.61 0.55 0.94 1.17 0.56 0.50 0.65 0.77 0.69 0.65 0.85 1.18 1.36 1.23 1.11 1.06 1.02
1.46 1.18 1.07 1.05 0.99 0.90 1.01 1.16 1.13 1.05 1.04 0.94 0.96 1.09 1.18 1.12 1.04 0.98 1.05 1.24 1.35 1.49 1.46 1.63 1.66 1.34 1.29 1.30 1.45 1.40 0.83 0.80 0.75 0.71 0.81 0.92 1.03 1.33 1.61 1.43 1.22 1.11 1.00
1.91 1.61 1.43 1.45 1.30 1.20 1.19 1.29 1.31 1.29 1.20 1.12 1.20 1.23 1.41 1.48 1.41 1.39 1.48 1.51 1.60 1.74 2.05 1.94 2.06 1.96 1.82 1.73 1.68 1.52 1.25 1.21 1.12 1.09 1.36 1.23 1.13 1.40 1.73 1.62 1.41 1.29 1.19
2.43 2.32 2.04 1.78 1.59 1.53 1.61 1.59 1.53 1.51 1.47 1.50 1.60 1.59 1.65 1.82 1.81 1.84 1.78 1.79 1.68 1.88 2.19 2.26 2.16 2.34 2.37 2.18 1.97 1.78 1.69 1.53 1.39 1.43 1.52 1.45 1.33 1.41 1.68 1.79 1.65 1.53 1.43
2.64 2.70 2.49 2.24 2.05 2.02 2.14 2.16 2.02 1.85 1.92 1.98 1.95 1.84 1.88 2.07 2.27 2.30 2.15 2.08 1.94 1.97 2.15 2.27 2.31 2.73 2.60 2.46 2.04 1.84 1.78 1.74 1.60 1.55 1.61 1.72 1.46 1.32 1.44 1.73 1.89 1.85 1.76
3.01 2.90 2.84 2.74 2.58 2.61 2.58 2.54 2.36 2.28 2.14 2.11 2.14 2.20 2.16 2.16 2.39 2.44 2.41 2.27 2.19 2.17 2.29 2.30 2.50 2.73 2.44 2.32 2.04 1.94 1.83 1.70 1.56 1.57 1.74 1.90 1.71 1.48 1.34 1.45 1.74 1.90 1.94
3.30 3.26 3.24 3.11 3.05 2.99 2.97 2.88 2.74 2.60 2.32 2.10 2.09 2.23 2.25 2.26 2.40 2.47 2.27 2.15 2.38 2.47 2.52 2.63 2.71 2.73 2.55 2.46 2.27 1.96 1.81 1.72 1.38 1.39 1.46 1.51 1.62 1.45 1.54 1.67 1.80 1.86 2.03
3.78 3.89 3.85 3.80 3.54 3.29 3.23 3.23 3.24 3.13 2.79 2.45 2.32 2.31 2.31 2.19 2.23 2.36 2.19 2.24 2.45 2.54 2.55 2.36 2.69 2.66 2.60 2.49 2.11 1.86 1.61 1.44 1.31 1.16 1.18 1.11 1.22 1.26 1.34 1.49 1.65 1.65 1.95
3.97 4.31 4.18 4.06 4.03 3.95 3.83 3.61 3.57 3.30 2.99 2.85 2.70 2.62 2.43 2.29 2.28 2.40 2.26 2.33 2.47 2.54 2.49 2.49 2.64 2.65 2.49 2.44 1.99 1.68 1.44 1.17 1.18 1.12 0.96 0.99 1.03 0.97 1.03 1.22 1.50 1.32 1.67
4.12 4.42 4.50 4.63 4.57 4.33 3.95 3.54 3.35 3.20 3.10 2.96 2.72 2.45 2.33 2.29 2.35 2.50 2.38 2.51 2.50 2.34 2.32 2.48 2.62 2.47 2.23 2.39 2.19 1.61 1.22 1.01 1.01 0.97 0.97 1.03 0.97 0.96 1.09 1.34 1.42 1.34 1.31
3.76 4.17 4.29 4.04 3.91 3.83 3.59 3.41 3.38 3.50 3.20 2.89 2.66 2.37 2.19 2.18 2.23 2.19 2.25 2.18 2.21 2.27 2.28 2.33 2.48 2.28 1.92 2.11 2.10 1.85 1.31 1.09 0.91 0.79 0.94 0.96 0.95 1.05 1.11 1.24 1.47 1.59 1.48
2.82 3.06 3.22 3.32 3.18 3.05 2.98 2.97 3.05 3.18 2.90 2.59 2.40 2.25 2.04 1.92 1.89 1.89 1.89 1.99 2.20 2.28 2.22 2.25 2.26 2.12 1.80 1.79 1.92 2.01 1.51 1.14 0.92 0.68 0.72 0.86 1.03 1.19 1.17 1.32 1.43 1.56 1.63
2.39 2.53 2.58 2.61 2.68 2.63 2.62 2.56 2.45 2.34 2.18 2.04 2.03 1.96 1.91 1.81 1.72 1.66 1.66 1.71 1.78 1.83 1.85 1.74 1.85 1.98 1.93 1.74 1.81 1.83 1.66 1.49 1.31 0.91 0.73 0.77 0.93 1.05 1.15 1.16 1.18 1.29 1.56
1.78 1.97 2.11 2.19 2.24 2.28 2.27 2.16 2.11 1.97 1.93 1.89 1.82 1.75 1.66 1.61 1.61 1.54 1.47 1.44 1.37 1.40 1.50 1.52 1.62 1.67 1.69 1.67 1.69 1.75 1.71 1.66 1.60 1.41 1.06 1.00 0.98 0.88 0.95 1.04 1.08 1.14 1.42
1.53 1.69 1.83 1.92 1.92 1.98 1.99 1.95 1.87 1.79 1.75 1.66 1.57 1.53 1.48 1.46 1.39 1.30 1.27 1.29 1.24 1.25 1.32 1.38 1.46 1.42 1.49 1.55 1.57 1.63 1.69 1.67 1.69 1.69 1.39 1.24 1.15 0.97 0.97 0.94 0.95 1.02 1.24